Location: Gleizolles
(44.4833°N, 6.7667°E)
Time: 20:49:30
(UTC+00:00)

A-11 Canister half - Pass Details

Date: 01 July 2024
Orbit: 1524 x 1684 km, 47.3° (Epoch: 18 July)

Event Time Altitude Azimuth Distance (km) Brightness Sun altitude
Rises 10:21:18 0° 238° (WSW) 4,803 11.6 63.6°
Reaches altitude 10° 10:24:26 10° 237° (WSW) 3,798 11.2 63.9°
Maximum altitude 10:34:01 78° 154° (SSE) 1,590 11.3 65.0°
Drops below altitude 10° 10:43:21 10° 70° (ENE) 3,705 11.2 65.9°
Sets 10:46:22 0° 69° (ENE) 4,681 11.6 66.2°
